STARLINK-33903, 63828

Orbit data source: Space-Track

STARLINK-33903, 63828 is a payload satellite owned by SpaceX/Seattle (US) in LEO that was launched on Sun, 04 May 2025 UTC via an FALCON 9 launch vehicle from the Air Force Eastern Test Range (AFETR). Payload-class satellites include a variety of spacecraft equipped with specific instruments for various scientific and technological missions. These include communications satellites like Starlink; space stations such as the ISS; scientific satellites like the Hubble; Earth observation satellites from companies like Planet Labs, Umbra, and HawkEye 360; GPS; miniature CubeSats for education and research; and military/defense satellites.

Loading next visibility...
Identifier
63828, 2025-092AA
Orbit
LEO
Country
Flag of USUS
Related business
Manufacturer
SpaceX/Seattle
Mission
Operational Commercial Communications
Bus & Motor
STARLINK V2MO, Unknown motor
Mass
575 kg wet, ~530 kg dry
Launch date (UTC)
2025-05-04 (7 months ago)
Launch vehicle
FALCON 9
Launch site
Air Force Eastern Test Range (AFETR)
Object type
Payload
Rocket body
Debris
Shape & HBR
Box + 2 Pan, 17.7 m
Radar Cross Section
36.964 m², Large (>1 m²)

Expand to show TLE details & history
Last TLE update: 17 hours ago

TLE from 17 hours ago
0 STARLINK-33903
1 63828U 25092AA  25343.25351541  .00042594  00000-0  15476-2 0  9997
2 63828  43.0037 323.2682 0001100 260.7573  99.3154 15.27598334 34830
Epoch: 2025-12-09T06:05Z
TLE epoch observation values (Epoch: 2025-12-09T06:05:03.731Z)
Latitude
-0.00004°
Longitude
153.76177°
Altitude
482.892 km
Speed
7.626 km/s
True Right ascension
21h 33m 04s
True Declination
0° 00' 00"
Sunlit
Object was in daylight at epoch
Visualization orbit readout
Latitude
Unknown
Longitude
Unknown
Altitude
Unknown
Speed
Unknown
Apparent Right ascension
Unknown
Apparent Declination
Unknown
Sunlit
N/A
Visualization observer readout
Local Sidereal Time
21:39:17
Azimuth
Unknown
Elevation
Unknown
Doppler factor
Unknown
Orbital elements
Apogee altitude
485.694 km
Perigee altitude
484.184 km
Semi-major axis
6,863.076 km
Eccentricity
0.00011
Inclination
43.0037°
RAAN
323.2682°
Arg. of periapsis
260.7573°
True anomaly
99.32784°
Mean anomaly
99.3154°
Eccentric anomaly
99.32162°
Mean motion
3.81738 °/min
Orbital period
94.31 mins
BSTAR
0.0015476
Loading maneuver chart data...
Computing Atmospheric mass density...
Loading historical data...
Loading historical data...
Loading historical data...
Loading historical data...
Loading historical data...
Loading historical data...
Loading historical data...

Documentation

Showing up to 5 results
|